Zurück zum Katalog

STARLINK-5721

AktivKommunikationVLEO
NORAD 55617·PAYLOAD·🇺🇸 United States

Gestartet Feb 12, 2023 von Cape Canaveral Space Force Station

Loading…

Nächste Überflüge (nächste 24 Stunden)

TLE

AktuellSource: CelesTrak SupGP

Epoche: Sep 14, 2026, 20:29 UTC

1 55617C 23020BA  26257.85395833  .00015412  00000+0  55817-3 0  2575
2 55617  43.0015   5.6658 0001384 270.7580  53.9132 15.27573364    11

Verfolge STARLINK-5721 in Echtzeit mit AllMySat

Download on the App Store